FENGYUN 3F

Satellite information

Favourite Embed

Satellite Type and Status

PAYLOADIN ORBIT

Key statistics

Satellite FENGYUN 3F at a glance.

Uptime

863

Days in orbit

Revolutions

≈ 14.2

Per day

Orbit

SSO

Sun Synchronous Orbit

Inclination

98.7

Latest

Satellite identification and parameters

Extended collection of information and parameters for FENGYUN 3F.

Object identification

Identified? True

Debris? False

Object name: FENGYUN 3F

International designator: 2023-111A

Object number (NORAD): 57490

Object ID (CCSDS): 57490

Country: PEOPLES REPUBLIC OF CHINA (PRC)

Current information (Y/N): Y

RCS size: LARGE

Orbital parameters

Period: 101.416 minutes

Inclination: 98.7084 deg

SMA: 7203.85 km

Apoapsis: 826.204 km

Periapsis: 825.226 km

RAAN: 54.6094 deg

Eccentricy: 0.00006788

Argument of periapsis: 101.2395 deg

Mean anomaly: 258.8858 deg

Mean motion: 14.1989344 rev/day

Mean motion (dot): 0.00000142 rev/day2

B* drag term: 0.000087441019 1/REarth

Two-line elements (TLE)

Creation date: Dec. 12, 2025, 10:14 a.m.

Reference frame: TEME

Reference center: EARTH

Epoch: Dec. 12, 2025, 7:25 a.m. UTC

TLE line 0: 0 FENGYUN 3F

TLE line 1: 1 57490U 23111A 25346.30907699 .00000142 00000-0 87441-4 0 9991

TLE line 2: 2 57490 98.7084 54.6094 0000679 101.2395 258.8858 14.19893440122343

Live tracking on map

Real-time ground track for satellite FENGYUN 3F.

In-orbit conjunctions

There are no conjunctions computed for FENGYUN 3F, at the moment. Check back to stay up to date, as we update our databases every day.

Go to all conjunctions

Associated space launch

The newer FY-3 series is an improved generation of polar-orbiting heliosynchronous weather satellites.

FENGYUN 3F was lifted into orbit during the mission ‘Long March 4C | Fengyun-3F’, on board a Long March 4C space rocket.

The launch took place on Aug. 3, 2023, 3:47 a.m. from Launch Area 94 (SLS-2 / 603).

For more information about the launch, click the button.

Launch to space Long March 4C | Fengyun-3F
Long March 4C | Fengyun-3F

Agency: N/A

Status: Launch Successful

Launch date: Aug. 3, 2023, 3:47 a.m. UTC

Rocket: Long March 4C

Launch pad: Launch Area 94 (SLS-2 / 603)

Location: Jiuquan Satellite Launch Center, People's Republic of China

...

Latest news about this satellite

News about space launch
China launches four rockets and outlines future lunar mission

China has picked up its launch cadence in the last two weeks as they continue to push forward in its ambitious 2023 launch schedule. Not only did they launch three rockets from the Chang Zheng family in a short period of time, but also Gushenxing-1 from S...

News about space launch
Launch Roundup: SpaceX launches Galaxy 37; will launch Starlink Group 6-8

Breaking into the 31st week of 2023, from July 31 to Aug. 6, not much is held in store in terms of launches. Up first this week, a momentous flight took place when the last Antares 230+ flew to LEO during the NG-19 resupply mission to the International Sp...


Newsletter sign-up

Weekly statistics, charts and insights to help you stay on top of the space industry.